sat.trackr.live / text

‹ back to catalog

TRANSPORTER-16 OBJECT Y

NORAD 68438 · 2026-067Y

PAYLOAD ACTIVE UNKNOWN

§ Identity

Operator
Country
TBD
Launch date
2026-03-30
Launch site
AFWTR
Launch vehicle
Mass (kg)
RCS (m²)

External: N2YO · Heavens-Above · Gunter

§ Orbital elements

Epoch: 2026-09-19T07:22:54.283872Z

Period
94.58 min
Inclination
97.4618°
Eccentricity
0.0005075
Mean motion
15.22493262 rev/d
Perigee alt
494.8 km
Apogee alt
501.8 km
Semi-major
6,876.5 km
B*
5.8400e-4
RAAN
219.9046°
Arg perigee
80.3766°
Mean anomaly
279.8044°
Rev number
2,625

§ Raw data

TRANSPORTER-16 OBJECT Y1 68438U 26067Y   26262.30757273  .00013476  00000+0  58400-3 0  99922 68438  97.4618 219.9046 0005075  80.3766 279.8044 15.22493262 26259

JSON: /api/v1/satellites/68438 · /tle

For live sub-satellite position, see the globe view (requires WebGL).

§ Visibility from observer

Set your observer location to see the next 7 days of passes ≥ 10°. The values pass through the URL so the page stays shareable.

No JS? Fill the form by hand. The geolocation button needs JavaScript.